Location: *
(50.8512°N, 5.6907°E)
Time: 18:47:20
(UTC+00:00)

NOSS 2-1 (C) - Pass Details

Date: 09 April 2020
Orbit: 450 x 1753 km, 63.3° (Epoch: 20 April)

Event Time Altitude Azimuth Distance (km) Brightness Sun altitude
Rises 22:30:25 0° 316° (NW) 2,924 8.0 -29.3°
Reaches altitude 10° 22:32:26 10° 319° (NW) 2,144 7.1 -29.4°
Enters shadow 22:37:01 70° 20° (NNE) 897 4.3 -29.6°
